Weather reports worldwide

Advertisment
Manston, United Kingdom (3797): temperature & dewpoint: 25.09.2020 23:00:00 - 01.10.2020 23:00:00 (BST)Manston, United Kingdom (3797): temperature -20cm & temperature -100cm: 25.09.2020 23:00:00 - 01.10.2020 23:00:00 (BST)Manston, United Kingdom (3797): wind speed & gusts: 25.09.2020 23:00:00 - 01.10.2020 23:00:00 (BST)Manston, United Kingdom (3797): wind direction: 25.09.2020 23:00:00 - 01.10.2020 23:00:00 (BST)Manston, United Kingdom (3797): reduced air pressure: 25.09.2020 23:00:00 - 01.10.2020 23:00:00 (BST)Manston, United Kingdom (3797): visibility: 25.09.2020 23:00:00 - 01.10.2020 23:00:00 (BST)Manston, United Kingdom (3797): sunshine duration: 25.09.2020 23:00:00 - 01.10.2020 23:00:00 (BST)Manston, United Kingdom (3797): precipitation: 25.09.2020 23:00:00 - 01.10.2020 23:00:00 (BST)
Date & Time tt [°C] td [°C] tt -20cm [°C] tt -100cm [°C] ff [km/h] ff [kn] fx [km/h] fx [kn] dd ppp [hPa] vv [km] sd [min] rr [mm]
01.10.2020 23:00:00 10,6 9,3 - - 13 7 - - SSE 995,4 35 - 0,0
01.10.2020 22:00:00 10,0 8,5 - - 13 7 - - S 996,3 13 0 0,0
01.10.2020 21:00:00 10,3 7,8 - - 13 7 - - S 996,8 40 0 0,2
01.10.2020 20:00:00 10,0 6,7 - - 9 5 - - S 997,0 45 0 0,0
01.10.2020 19:00:00 11,0 5,6 - - 9 5 - - SSW 997,2 45 0 0,0
01.10.2020 18:00:00 13,0 7,3 - - 15 8 - - SSW 997,2 45 48 0,0
01.10.2020 17:00:00 14,8 7,0 - - 21 11 - - SSW 997,5 50 36 0,0
01.10.2020 16:00:00 14,9 6,8 - - 22 12 - - WSW 997,8 45 36 0,0
01.10.2020 15:00:00 15,8 9,9 - - 15 8 - - W 997,6 50 30 0,0
01.10.2020 14:00:00 13,8 10,0 - - 18 10 - - W 998,0 50 18 0,0
01.10.2020 13:00:00 13,4 10,4 - - 22 12 - - W 997,7 35 0 0,0
01.10.2020 12:00:00 13,1 10,6 - - 21 11 - - W 997,7 30 0 0,0
01.10.2020 11:00:00 12,5 11,3 - - 15 8 - - W 997,7 25 0 0,0
01.10.2020 10:00:00 12,5 11,4 14,2 14,7 13 7 - - WNW 997,2 30 0 0,0
01.10.2020 09:00:00 12,7 12,7 - - 11 6 - - W 997,4 23 0 0,0
01.10.2020 08:00:00 12,3 12,2 - - 8 4 - - SW 997,6 35 0 0,2
01.10.2020 07:00:00 12,4 12,3 - - 5 3 - - SSW 997,8 35 0 0,0
01.10.2020 06:00:00 12,4 12,3 - - 5 3 - - S 998,0 15 0 1,0
01.10.2020 05:00:00 12,6 12,4 - - 11 6 - - ESE 998,5 7 - 2,4
01.10.2020 04:00:00 13,2 12,9 - - 8 4 - - S 999,2 5 0 3,0
01.10.2020 03:00:00 13,0 11,8 - - 22 12 - - SSW 1000,0 6 0 3,4
01.10.2020 02:00:00 14,9 13,9 - - 21 11 - - S 1000,3 24 0 1,2
01.10.2020 01:00:00 15,1 13,8 - - 26 14 - - S 1001,3 20 - 0,0
01.10.2020 00:00:00 14,9 13,7 - - 26 14 - - S 1002,2 17 0 0,2
30.09.2020 23:00:00 14,5 13,2 - - 35 19 54 29 S 1003,1 35 0 1,2
30.09.2020 22:00:00 14,2 13,5 - - 24 13 - - S 1003,7 12 0 0,6
30.09.2020 21:00:00 14,1 13,3 - - 22 12 - - SSW 1004,5 9 0 1,0
30.09.2020 20:00:00 15,1 14,1 - - 22 12 50 27 S 1004,8 11 0 0,0
30.09.2020 19:00:00 16,4 13,1 - - 34 18 54 29 S 1005,5 40 0 0,0
30.09.2020 18:00:00 16,5 13,8 - - 22 12 - - S 1005,9 30 0 0,0
30.09.2020 17:00:00 17,0 13,1 - - 26 14 46 25 S 1006,9 30 0 0,0
30.09.2020 16:00:00 18,0 13,5 - - 31 17 50 27 S 1007,4 30 0 0,0
30.09.2020 15:00:00 17,3 13,1 - - 34 18 50 27 S 1008,1 45 18 0,0
30.09.2020 14:00:00 18,4 13,3 - - 34 18 - - SSW 1008,6 30 6 0,0
30.09.2020 13:00:00 16,8 12,1 - - 29 16 46 25 S 1009,4 45 0 0,0
30.09.2020 12:00:00 17,7 12,2 - - 26 14 - - SSW 1009,8 40 18 0,0
30.09.2020 11:00:00 16,8 13,1 - - 24 13 - - S 1010,5 35 30 0,0
30.09.2020 10:00:00 16,0 13,9 - - 22 12 - - S 1011,3 26 6 0,0
30.09.2020 09:00:00 14,5 13,1 - - 11 6 - - SSE 1011,8 25 12 0,0
30.09.2020 08:00:00 11,8 10,7 - - 5 3 - - SSE 1012,2 26 0 0,0
30.09.2020 07:00:00 10,9 9,7 - - 8 4 - - S 1012,3 18 0 0,0
30.09.2020 06:00:00 10,3 9,7 - - 9 5 - - S 1012,8 25 - 0,0
30.09.2020 05:00:00 9,9 9,3 - - 11 6 - - S 1012,8 19 0 0,0
30.09.2020 04:00:00 10,5 10,2 - - 8 4 - - S 1013,4 16 0 0,0
30.09.2020 03:00:00 10,8 10,4 - - 9 5 - - SSW 1014,1 11 - 0,0
30.09.2020 02:00:00 11,4 11,2 - - 11 6 - - S 1014,6 9 0 0,0
30.09.2020 01:00:00 10,9 10,5 - - 11 6 - - SSE 1014,6 6 - 0,0
30.09.2020 00:00:00 11,1 10,7 - - 9 5 - - SSW 1015,3 7 0 0,0
29.09.2020 23:00:00 12,3 11,3 - - 8 4 - - SSE 1015,5 20 0 0,0
29.09.2020 22:00:00 12,1 11,4 - - 9 5 - - S 1015,9 19 0 0,0
29.09.2020 21:00:00 11,7 11,1 - - 9 5 - - S 1016,1 14 0 0,0
29.09.2020 20:00:00 12,7 11,7 - - 5 3 - - NNW 1015,8 45 0 0,0
29.09.2020 19:00:00 13,3 11,5 - - 9 5 - - NNW 1015,7 50 6 0,0
29.09.2020 18:00:00 15,3 11,8 - - 13 7 - - NW 1015,4 50 54 0,0
29.09.2020 17:00:00 16,3 13,1 - - 16 9 - - NW 1015,1 40 60 0,0
29.09.2020 16:00:00 16,9 13,3 - - 22 12 - - WNW 1015,0 40 60 0,0
29.09.2020 15:00:00 17,2 14,1 - - 24 13 - - WNW 1014,7 50 12 0,0
29.09.2020 14:00:00 17,6 14,2 - - 16 9 - - WNW 1014,7 50 36 0,0
29.09.2020 13:00:00 19,8 15,4 - - 18 10 - - SSW 1014,8 24 54 0,0
29.09.2020 12:00:00 16,7 16,7 - - 11 6 - - SSW 1015,1 25 0 0,0
29.09.2020 11:00:00 16,2 16,2 - - 13 7 - - SSE 1015,3 8 0 0,0
29.09.2020 10:00:00 15,3 15,3 13,0 15,0 11 6 - - SSE 1015,2 3,9 0 0,4
29.09.2020 09:00:00 14,3 14,2 - - 9 5 - - SSE 1015,1 1,0 0 0,8
29.09.2020 08:00:00 13,6 13,5 - - 9 5 - - SE 1014,8 2,7 0 0,2
29.09.2020 07:00:00 12,8 12,6 - - 9 5 - - SSE 1014,6 3,7 0 0,0
29.09.2020 06:00:00 12,7 12,5 - - 8 4 - - SSW 1014,5 3,7 0 0,2
29.09.2020 05:00:00 12,5 12,3 - - 9 5 - - SW 1014,4 5 0 0,0
29.09.2020 04:00:00 11,0 10,7 - - 11 6 - - W 1014,4 5 0 0,0
29.09.2020 03:00:00 10,9 10,2 - - 9 5 - - W 1014,6 10 0 0,0
29.09.2020 02:00:00 11,7 10,9 - - 13 7 - - W 1014,5 13 0 0,0
29.09.2020 01:00:00 11,0 9,8 - - 11 6 - - WSW 1014,2 20 - 0,0
29.09.2020 00:00:00 11,3 9,4 - - 15 8 - - WSW 1014,2 27 0 0,0
28.09.2020 23:00:00 11,3 7,4 - - 15 8 - - WSW 1014,3 30 0 0,0
28.09.2020 22:00:00 12,0 7,3 - - 15 8 - - W 1014,1 35 0 0,0
28.09.2020 21:00:00 12,9 8,1 - - 9 5 - - WNW 1013,7 45 0 0,0
28.09.2020 20:00:00 11,7 4,8 - - 11 6 - - W 1013,6 45 0 0,0
28.09.2020 19:00:00 11,9 4,7 - - 13 7 - - W 1013,1 40 0 0,0
28.09.2020 18:00:00 14,5 4,3 - - 4 2 - - WNW 1012,6 35 18 0,0
28.09.2020 17:00:00 16,0 4,5 - - 13 7 - - WNW 1012,2 30 54 0,0
28.09.2020 16:00:00 15,9 7,5 - - 21 11 - - W 1012,1 35 48 0,0
28.09.2020 15:00:00 14,6 8,7 - - 18 10 - - WNW 1012,3 24 0 0,0
28.09.2020 14:00:00 13,5 9,7 - - 21 11 - - WNW 1012,6 20 0 0,0
28.09.2020 13:00:00 12,7 9,3 - - 18 10 - - WNW 1012,6 35 0 0,0
28.09.2020 12:00:00 12,6 9,7 - - 18 10 - - WNW 1012,3 24 0 0,0
28.09.2020 11:00:00 11,9 9,7 - - 18 10 - - WNW 1012,1 30 0 0,0
28.09.2020 10:00:00 11,5 9,7 13,0 15,2 16 9 - - WNW 1012,0 24 0 0,0
28.09.2020 09:00:00 11,2 9,5 - - 22 12 - - NW 1011,7 26 0 0,0
28.09.2020 08:00:00 11,1 9,5 - - 21 11 - - NW 1011,4 21 0 0,0
28.09.2020 07:00:00 11,1 9,7 - - 24 13 - - NW 1011,1 21 0 0,0
28.09.2020 06:00:00 11,2 9,8 - - 22 12 - - NW 1011,0 23 0 0,0
28.09.2020 05:00:00 11,3 10,0 - - 22 12 - - NW 1010,9 21 0 0,0
28.09.2020 04:00:00 11,5 10,2 - - 24 13 - - NW 1010,8 19 0 0,0
28.09.2020 03:00:00 11,4 10,2 - - 26 14 - - NW 1011,5 17 0 0,0
28.09.2020 02:00:00 11,5 10,4 - - 26 14 - - NW 1011,6 5 0 0,0
28.09.2020 01:00:00 11,7 10,6 - - 31 17 - - NNW 1011,4 14 - 0,0
28.09.2020 00:00:00 12,3 10,7 - - 35 19 50 27 NNW 1011,6 16 0 0,0
27.09.2020 23:00:00 12,3 10,5 - - 31 17 - - NNW 1011,3 22 0 0,0
27.09.2020 22:00:00 12,1 10,9 - - 34 18 48 26 NNW 1011,4 8 0 0,0
27.09.2020 21:00:00 12,2 10,7 - - 37 20 50 27 NNW 1011,3 13 0 0,0
27.09.2020 20:00:00 12,7 10,8 - - 31 17 52 28 NNW 1011,1 16 0 0,0
27.09.2020 19:00:00 12,7 10,9 - - 31 17 48 26 NNW 1010,5 14 0 0,0
27.09.2020 18:00:00 12,8 10,8 - - 35 19 54 29 NNW 1010,2 16 0 0,0
27.09.2020 17:00:00 13,0 10,9 - - 37 20 54 29 NNW 1009,7 12 0 0,0
27.09.2020 16:00:00 13,2 10,6 - - 37 20 55 30 NNW 1009,6 15 0 0,0
27.09.2020 15:00:00 12,9 10,7 - - 41 22 59 32 NNW 1009,4 13 0 0,0
27.09.2020 14:00:00 12,9 10,7 - - 42 23 61 33 NNW 1009,1 13 0 0,0
27.09.2020 13:00:00 12,6 10,6 - - 39 21 61 33 NNW 1008,9 11 0 0,0
27.09.2020 12:00:00 12,4 10,4 - - 42 23 63 34 NNW 1008,4 13 0 0,0
27.09.2020 11:00:00 12,4 10,3 - - 41 22 61 33 NNW 1008,1 11 0 0,0
27.09.2020 10:00:00 12,1 10,6 - - 42 23 65 35 NNW 1007,7 10 0 0,4
27.09.2020 09:00:00 11,4 10,5 - - 39 21 65 35 NNW 1007,4 4,1 0 0,4
27.09.2020 08:00:00 11,6 9,8 - - 48 26 67 36 NNW 1006,8 9 0 0,0
27.09.2020 07:00:00 11,6 9,3 - - 42 23 65 35 NNW 1006,7 16 0 0,0
27.09.2020 06:00:00 11,2 9,0 - - 44 24 70 38 NNW 1006,6 21 0 0,0
27.09.2020 05:00:00 11,4 8,6 - - 48 26 72 39 NNW 1006,7 18 0 0,0
27.09.2020 04:00:00 10,4 9,2 - - 41 22 63 34 NW 1007,0 15 0 0,0
27.09.2020 03:00:00 10,7 9,1 - - 39 21 59 32 NW 1007,2 16 0 0,0
27.09.2020 02:00:00 10,8 9,1 - - 39 21 57 31 NW 1007,9 13 0 0,2
27.09.2020 01:00:00 10,8 9,0 - - 41 22 57 31 NW 1008,2 12 - 0,0
27.09.2020 00:00:00 11,1 9,4 - - 39 21 55 30 NNW 1008,7 10 0 0,0
26.09.2020 23:00:00 11,6 9,2 - - 39 21 59 32 NNW 1008,9 10 0 0,0
26.09.2020 22:00:00 11,7 9,0 - - 39 21 63 34 NNW 1008,8 10 0 0,0
26.09.2020 21:00:00 12,1 8,8 - - 42 23 61 33 NNW 1008,6 10 0 0,0
26.09.2020 20:00:00 12,5 8,6 - - 44 24 67 36 NNW 1008,0 11 0 0,0
26.09.2020 19:00:00 11,8 9,7 - - 35 19 59 32 NW 1008,0 12 0 0,0
26.09.2020 18:00:00 11,6 9,8 - - 37 20 61 33 NW 1007,7 15 0 0,0
26.09.2020 17:00:00 11,0 9,4 - - 42 23 67 36 NW 1007,2 7 0 0,0
26.09.2020 16:00:00 10,3 8,6 - - 44 24 65 35 NW 1007,2 7 0 0,8
26.09.2020 15:00:00 10,6 7,6 - - 44 24 67 36 NW 1007,3 28 0 0,0
26.09.2020 14:00:00 11,0 6,3 - - 41 22 65 35 NW 1007,2 35 0 0,0
26.09.2020 13:00:00 10,4 6,1 - - 39 21 61 33 NW 1007,4 21 0 0,0
26.09.2020 12:00:00 10,1 5,3 - - 37 20 59 32 NW 1007,5 25 0 0,0
26.09.2020 11:00:00 9,6 4,4 - - 39 21 59 32 NW 1007,6 24 0 0,0
26.09.2020 10:00:00 8,9 4,8 - - 39 21 67 36 NW 1007,4 23 0 0,0
26.09.2020 09:00:00 8,5 4,2 - - 39 21 59 32 NW 1007,3 26 0 0,0
26.09.2020 08:00:00 8,6 4,2 - - 41 22 65 35 NW 1007,1 18 0 0,0
26.09.2020 07:00:00 8,5 4,0 - - 37 20 61 33 NW 1006,7 20 0 0,0
26.09.2020 06:00:00 8,9 4,0 - - 37 20 63 34 NW 1006,6 21 0 0,0
26.09.2020 05:00:00 9,2 4,5 - - 37 20 63 34 NW 1006,4 19 0 0,0
26.09.2020 04:00:00 9,6 4,4 - - 41 22 72 39 NW 1006,3 22 0 0,0
26.09.2020 03:00:00 9,9 4,6 - - 41 22 72 39 NW 1006,0 20 - 0,0
26.09.2020 02:00:00 10,3 4,8 - - 46 25 70 38 NW 1005,7 22 0 0,0
26.09.2020 01:00:00 10,6 5,3 - - 46 25 78 42 NW 1005,5 30 - 0,0
26.09.2020 00:00:00 10,9 5,7 - - 50 27 80 43 NW 1005,1 30 0 0,0
25.09.2020 23:00:00 10,9 6,0 - - 50 27 78 42 NW 1004,8 30 0 0,0

tt = temperature
td = dewpoint
tt -20cm = temperature -20cm
tt -100cm = temperature -100cm
ff = wind speed
fx = gusts
dd = wind direction
ppp = reduced air pressure
vv = visibility
sd = sunshine duration
rr = precipitation

Next stations